TimePST,TemperatureF,Dew PointF,Humidity,Sea Level PressureIn,VisibilityMPH,Wind Direction,Wind SpeedMPH,Gust SpeedMPH,PrecipitationIn,Events,Conditions,WindDirDegrees,DateUTC
12:55 AM,35.1,30.9,85,30.08,10.0,WNW,6.9,-,N/A,,Clear,300,2013-03-08 08:55:00
1:55 AM,35.1,30.9,85,30.08,10.0,WNW,4.6,-,N/A,,Overcast,300,2013-03-08 09:55:00
2:55 AM,34.0,32.0,92,30.08,10.0,West,6.9,-,N/A,,Scattered Clouds,270,2013-03-08 10:55:00
3:55 AM,32.0,30.0,92,30.08,10.0,WNW,4.6,-,N/A,,Scattered Clouds,290,2013-03-08 11:55:00
4:55 AM,30.9,28.9,92,30.08,10.0,WNW,5.8,-,N/A,,Clear,290,2013-03-08 12:55:00
5:55 AM,32.0,28.9,88,30.09,10.0,WNW,6.9,-,N/A,,Clear,290,2013-03-08 13:55:00
6:55 AM,30.9,28.0,89,30.09,10.0,West,4.6,-,N/A,,Clear,280,2013-03-08 14:55:00
7:55 AM,34.0,30.0,85,30.09,10.0,West,5.8,-,N/A,,Clear,280,2013-03-08 15:55:00
8:55 AM,37.0,30.0,76,30.10,10.0,West,10.4,-,N/A,,Clear,280,2013-03-08 16:55:00
9:55 AM,39.9,32.0,73,30.10,10.0,West,4.6,-,N/A,,Clear,270,2013-03-08 17:55:00
10:55 AM,44.1,32.0,63,30.09,10.0,West,5.8,-,N/A,,Clear,280,2013-03-08 18:55:00
11:55 AM,46.9,30.9,54,30.08,10.0,Calm,Calm,-,N/A,,Clear,0,2013-03-08 19:55:00
12:55 PM,48.0,32.0,54,30.06,10.0,Variable,3.5,-,N/A,,Clear,0,2013-03-08 20:55:00
1:55 PM,50.0,30.0,46,30.04,10.0,Calm,Calm,-,N/A,,Clear,0,2013-03-08 21:55:00
2:55 PM,51.1,30.9,46,30.04,10.0,ESE,8.1,-,N/A,,Clear,120,2013-03-08 22:55:00
3:55 PM,51.1,32.0,48,30.03,10.0,SE,8.1,-,N/A,,Clear,130,2013-03-08 23:55:00
4:55 PM,51.1,33.1,50,30.04,10.0,ESE,5.8,-,N/A,,Clear,120,2013-03-09 00:55:00
5:55 PM,48.9,33.1,54,30.05,10.0,ESE,4.6,-,N/A,,Clear,120,2013-03-09 01:55:00
6:55 PM,43.0,33.1,68,30.08,10.0,ENE,5.8,-,N/A,,Clear,70,2013-03-09 02:55:00
7:55 PM,44.1,32.0,63,30.10,10.0,East,3.5,-,N/A,,Clear,80,2013-03-09 03:55:00
8:55 PM,44.1,32.0,63,30.13,10.0,Calm,Calm,-,N/A,,Clear,0,2013-03-09 04:55:00
9:55 PM,39.9,30.9,70,30.14,10.0,Calm,Calm,-,N/A,,Clear,0,2013-03-09 05:55:00
10:55 PM,39.0,30.0,70,30.15,10.0,Calm,Calm,-,N/A,,Clear,0,2013-03-09 06:55:00
11:55 PM,36.0,30.0,79,30.18,10.0,NW,4.6,-,N/A,,Clear,310,2013-03-09 07:55:00